| time (UTC) | temp F | wind direction | speed MPH | gust MPH | rain 1hr in | rain 24hr in | rain mn in | humidity % | barometer mb |
| 20260503200006 | 72 | 360 | 4.0 | 11.0 | 0.00 | 0.00 | 0.00 | 29 | 1010.6 |
| 20260503193005 | 71 | 360 | 4.0 | 15.0 | 0.00 | 0.00 | 0.00 | 31 | 1010.9 |
| 20260503191504 | 71 | 360 | 3.0 | 11.0 | 0.00 | 0.00 | 0.00 | 32 | 1010.9 |
| 20260503190005 | 71 | 217 | 3.0 | 20.0 | 0.00 | 0.00 | 0.00 | 33 | 1011.1 |
| 20260503184503 | 71 | 360 | 3.0 | 9.0 | 0.00 | 0.00 | 0.00 | 35 | 1011.3 |
| 20260503183004 | 70 | 360 | 1.0 | 9.0 | 0.00 | 0.00 | 0.00 | 37 | 1011.5 |
| 20260503180005 | 68 | 142 | 3.0 | 12.0 | 0.00 | 0.00 | 0.00 | 39 | 1012.3 |
| 20260503174503 | 66 | 360 | 3.0 | 8.0 | 0.00 | 0.00 | 0.00 | 42 | 1012.6 |
| 20260503173004 | 67 | 360 | 3.0 | 14.0 | 0.00 | 0.00 | 0.00 | 41 | 1012.7 |
| 20260503171503 | 64 | 360 | 2.0 | 9.0 | 0.00 | 0.00 | 0.00 | 44 | 1012.6 |
| 20260503081502 | 57 | 93 | 0.0 | 8.0 | 0.00 | 0.00 | 0.00 | 40 | 1012.5 |
| 20260503054501 | 59 | 360 | 2.0 | 6.0 | 0.00 | 0.00 | 0.00 | 32 | 1012.5 |
| 20260503053004 | 59 | 94 | 2.0 | 6.0 | 0.00 | 0.00 | 0.00 | 32 | 1012.4 |
| 20260503051501 | 59 | 86 | 2.0 | 7.0 | 0.00 | 0.00 | 0.00 | 32 | 1012.4 |
| 20260503044501 | 58 | 360 | 0.0 | 3.0 | 0.00 | 0.00 | 0.00 | 33 | 1012.3 |
| 20260503043004 | 58 | 101 | 0.0 | 5.0 | 0.00 | 0.00 | 0.00 | 34 | 1012.1 |
| 20260503041501 | 58 | 125 | 0.0 | 3.0 | 0.00 | 0.00 | 0.00 | 34 | 1011.9 |
| 20260503040004 | 58 | 139 | 1.0 | 3.0 | 0.00 | 0.00 | 0.00 | 35 | 1011.7 |
| 20260503033004 | 58 | 145 | 0.0 | 0.0 | 0.00 | 0.00 | 0.00 | 35 | 1011.5 |
| 20260503031501 | 59 | 146 | 0.0 | 1.0 | 0.00 | 0.00 | 0.00 | 35 | 1011.4 |
| 20260503024501 | 60 | 360 | 0.0 | 0.0 | 0.00 | 0.00 | 0.00 | 35 | 1011.0 |
| 20260503023004 | 60 | 159 | 0.0 | 1.0 | 0.00 | 0.00 | 0.00 | 34 | 1010.9 |
| 20260503021501 | 62 | 191 | 0.0 | 0.0 | 0.00 | 0.00 | 0.00 | 32 | 1010.8 |
| 20260503020004 | 64 | 360 | 0.0 | 2.0 | 0.00 | 0.00 | 0.00 | 30 | 1010.8 |
| 20260503014501 | 65 | 360 | 0.0 | 3.0 | 0.00 | 0.00 | 0.00 | 31 | 1010.7 |
| 20260503013004 | 66 | 360 | 0.0 | 2.0 | 0.00 | 0.00 | 0.00 | 29 | 1010.6 |
| 20260503011502 | 66 | 147 | 1.0 | 5.0 | 0.00 | 0.00 | 0.00 | 29 | 1010.6 |
| 20260503004503 | 68 | 360 | 1.0 | 8.0 | 0.00 | 0.00 | 0.00 | 29 | 1010.7 |
| 20260503003002 | 68 | 360 | 1.0 | 5.0 | 0.00 | 0.00 | 0.00 | 29 | 1010.6 |
| 20260503001501 | 70 | 160 | 1.0 | 5.0 | 0.00 | 0.00 | 0.00 | 29 | 1010.5 |
| 20260503000004 | 69 | 264 | 0.0 | 2.0 | 0.00 | 0.00 | 0.00 | 28 | 1010.5 |
| 20260502234501 | 69 | 166 | 0.0 | 5.0 | 0.00 | 0.00 | 0.00 | 29 | 1010.5 |
| 20260502233003 | 68 | 360 | 1.0 | 5.0 | 0.00 | 0.00 | 0.00 | 31 | 1010.6 |
| 20260502231502 | 68 | 180 | 1.0 | 4.0 | 0.00 | 0.00 | 0.00 | 30 | 1010.8 |
| 20260502230004 | 69 | 360 | 1.0 | 7.0 | 0.00 | 0.00 | 0.00 | 29 | 1010.6 |
| 20260502224501 | 70 | 360 | 1.0 | 6.0 | 0.00 | 0.00 | 0.00 | 29 | 1010.7 |
| 20260502223002 | 70 | 169 | 1.0 | 5.0 | 0.00 | 0.00 | 0.00 | 29 | 1010.8 |
| 20260502221501 | 71 | 200 | 2.0 | 8.0 | 0.00 | 0.00 | 0.00 | 28 | 1011.1 |
| 20260502220004 | 68 | 143 | 0.0 | 6.0 | 0.00 | 0.00 | 0.00 | 30 | 1011.3 |
| 20260502214501 | 68 | 140 | 2.0 | 6.0 | 0.00 | 0.00 | 0.00 | 30 | 1011.5 |
| 20260502213003 | 69 | 360 | 1.0 | 5.0 | 0.00 | 0.00 | 0.00 | 31 | 1011.6 |
| 20260502211501 | 68 | 187 | 1.0 | 7.0 | 0.00 | 0.00 | 0.00 | 28 | 1012.0 |
| 20260502204501 | 72 | 360 | 3.0 | 12.0 | 0.00 | 0.00 | 0.00 | 27 | 1012.1 |
| 20260502203004 | 71 | 164 | 1.0 | 8.0 | 0.00 | 0.00 | 0.00 | 27 | 1012.2 |
| 20260502201501 | 70 | 189 | 1.0 | 6.0 | 0.00 | 0.00 | 0.00 | 27 | 1012.4 |